TAM3788 SBRJ-SBBR

Flight info

Callsign TAM3788
Flight time N/A
Altitude 36000
Route MUDKA UM409 ISIPI
Aircraft A20N/M-SDE2E3FGHIRWXY/LB1

Departure

Time 2026-05-07 23:24
Airport Santos Dumont Airport (SBRJ)

Arrival

Time N/A
Airport Presidente Juscelino Kubitschek International Airport (SBBR)
Time Latitude Longitude Altitude Speed Heading
2026-05-07 22:41 -22.91356 -43.16569 33 ft 0 kts 266°
2026-05-07 22:41 -22.91317 -43.16572 33 ft 0 kts 266°
2026-05-07 23:12 -22.91317 -43.16571 33 ft 1 kts 266°
2026-05-07 23:12 -22.91316 -43.16554 33 ft 2 kts 266°
2026-05-07 23:12 -22.91315 -43.16536 33 ft 2 kts 268°
2026-05-07 23:12 -22.91315 -43.16518 33 ft 2 kts 274°
2026-05-07 23:13 -22.91321 -43.16505 33 ft 1 kts 350°
2026-05-07 23:13 -22.91322 -43.16504 33 ft 0 kts 354°
2026-05-07 23:18 -22.91316 -43.16505 33 ft 3 kts 355°
2026-05-07 23:18 -22.91285 -43.16507 33 ft 7 kts 356°
2026-05-07 23:18 -22.91226 -43.16511 33 ft 10 kts 356°
2026-05-07 23:19 -22.91155 -43.16515 33 ft 11 kts 356°
2026-05-07 23:19 -22.91082 -43.16531 33 ft 11 kts 347°
2026-05-07 23:19 -22.91003 -43.16540 30 ft 12 kts 357°
2026-05-07 23:19 -22.90919 -43.16546 33 ft 13 kts 356°
2026-05-07 23:20 -22.90829 -43.16549 33 ft 13 kts 11°
2026-05-07 23:20 -22.90738 -43.16543 33 ft 14 kts 357°
2026-05-07 23:20 -22.90641 -43.16549 33 ft 14 kts 356°
2026-05-07 23:20 -22.90539 -43.16556 33 ft 15 kts 356°
2026-05-07 23:21 -22.90500 -43.16538 33 ft 3 kts 75°
2026-05-07 23:21 -22.90497 -43.16503 33 ft 6 kts 89°
2026-05-07 23:21 -22.90496 -43.16488 32 ft 0 kts 87°
2026-05-07 23:22 -22.90496 -43.16485 32 ft 2 kts 87°
2026-05-07 23:23 -22.90495 -43.16447 32 ft 8 kts 87°
2026-05-07 23:23 -22.90477 -43.16372 30 ft 11 kts 65°
2026-05-07 23:23 -22.90474 -43.16325 31 ft 1 kts 166°
2026-05-07 23:23 -22.90506 -43.16322 31 ft 26 kts 174°
2026-05-07 23:24 -22.90974 -43.16289 29 ft 109 kts 176°
2026-05-07 23:24 -22.91984 -43.16230 235 ft 166 kts 175°
2026-05-07 23:24 -22.93140 -43.16078 1074 ft 168 kts 162°
2026-05-07 23:24 -22.94119 -43.15263 1583 ft 195 kts 120°
2026-05-07 23:25 -22.94915 -43.13949 1845 ft 224 kts 124°
2026-05-07 23:25 -22.96058 -43.12607 2096 ft 258 kts 135°
2026-05-07 23:25 -22.97489 -43.11290 2597 ft 276 kts 139°
2026-05-07 23:25 -22.99012 -43.09977 3289 ft 284 kts 140°
2026-05-07 23:26 -23.00592 -43.08642 4004 ft 291 kts 138°
2026-05-07 23:26 -23.01881 -43.07005 4948 ft 282 kts 114°
2026-05-07 23:26 -23.02316 -43.04999 5860 ft 270 kts 83°
2026-05-07 23:26 -23.01989 -43.02993 6607 ft 271 kts 69°
2026-05-07 23:27 -23.00592 -42.99138 8088 ft 279 kts 62°
2026-05-07 23:27 -22.99765 -42.97216 8869 ft 284 kts 62°
2026-05-07 23:27 -22.99002 -42.95223 9678 ft 288 kts 65°
2026-05-07 23:28 -22.98297 -42.93201 10434 ft 292 kts 67°
2026-05-07 23:28 -22.97593 -42.91072 10863 ft 309 kts 68°
2026-05-07 23:28 -22.96659 -42.88937 11242 ft 320 kts 48°
2026-05-07 23:28 -22.94856 -42.87510 11679 ft 328 kts 25°
2026-05-07 23:29 -22.93452 -42.86783 12030 ft 334 kts 24°
2026-05-07 23:29 -22.91330 -42.85741 12541 ft 343 kts 23°
2026-05-07 23:29 -22.89117 -42.84720 13246 ft 345 kts 22°
2026-05-07 23:29 -22.86867 -42.83811 14003 ft 346 kts 14°
2026-05-07 23:30 -22.84465 -42.83677 14682 ft 349 kts 354°
2026-05-07 23:30 -22.82057 -42.84065 15421 ft 350 kts 351°
2026-05-07 23:30 -22.79657 -42.84557 16166 ft 352 kts 349°
2026-05-07 23:30 -22.77263 -42.85137 16913 ft 353 kts 347°
2026-05-07 23:31 -22.74835 -42.85685 17348 ft 364 kts 354°
2026-05-07 23:31 -22.72289 -42.85889 17873 ft 369 kts 355°
2026-05-07 23:31 -22.69716 -42.86174 18457 ft 373 kts 353°
2026-05-07 23:31 -22.67156 -42.86536 18966 ft 377 kts 352°
2026-05-07 23:32 -22.64547 -42.86937 19468 ft 381 kts 351°
2026-05-07 23:32 -22.61904 -42.87360 19942 ft 386 kts 351°
2026-05-07 23:32 -22.59239 -42.87794 20455 ft 390 kts 351°
2026-05-07 23:32 -22.56538 -42.88239 20978 ft 394 kts 350°
2026-05-07 23:33 -22.53810 -42.88689 21487 ft 399 kts 349°
2026-05-07 23:33 -22.51048 -42.89147 21930 ft 405 kts 350°
2026-05-07 23:33 -22.48250 -42.89611 22507 ft 408 kts 350°
2026-05-07 23:33 -22.45431 -42.90077 23016 ft 412 kts 349°
2026-05-07 23:34 -22.42576 -42.90550 23499 ft 417 kts 349°
2026-05-07 23:34 -22.39695 -42.91028 23982 ft 420 kts 349°
2026-05-07 23:34 -22.36805 -42.91505 24459 ft 421 kts 349°
2026-05-07 23:34 -22.33887 -42.91988 24887 ft 424 kts 349°
2026-05-07 23:35 -22.30996 -42.92467 25302 ft 427 kts 349°
2026-05-07 23:35 -22.28091 -42.93123 25742 ft 428 kts 341°
2026-05-07 23:35 -22.25332 -42.94314 26123 ft 427 kts 329°
2026-05-07 23:35 -22.22860 -42.96094 26541 ft 426 kts 319°
2026-05-07 23:36 -22.20571 -42.98133 26943 ft 427 kts 316°
2026-05-07 23:36 -22.18314 -43.00242 27368 ft 429 kts 316°
2026-05-07 23:36 -22.16061 -43.02365 27789 ft 431 kts 316°
2026-05-07 23:36 -22.13802 -43.04496 28189 ft 433 kts 315°
2026-05-07 23:37 -22.11529 -43.06639 28590 ft 435 kts 315°
2026-05-07 23:37 -22.09280 -43.08758 28970 ft 437 kts 315°
2026-05-07 23:37 -22.06985 -43.10919 29342 ft 439 kts 315°
2026-05-07 23:37 -22.04680 -43.13088 29711 ft 441 kts 315°
2026-05-07 23:38 -22.02360 -43.15269 30070 ft 443 kts 315°
2026-05-07 23:38 -22.00030 -43.17460 30368 ft 446 kts 315°
2026-05-07 23:38 -21.97683 -43.19665 30640 ft 449 kts 315°
2026-05-07 23:38 -21.95325 -43.21879 30880 ft 452 kts 315°
2026-05-07 23:39 -21.92945 -43.24114 31088 ft 456 kts 315°
2026-05-07 23:39 -21.90545 -43.26365 31374 ft 458 kts 315°
2026-05-07 23:39 -21.88176 -43.28584 31750 ft 457 kts 315°
2026-05-07 23:39 -21.85777 -43.30832 32155 ft 457 kts 315°
2026-05-07 23:40 -21.83381 -43.33076 32523 ft 456 kts 315°
2026-05-07 23:40 -21.80984 -43.35321 32905 ft 456 kts 315°
2026-05-07 23:40 -21.78584 -43.37568 33253 ft 456 kts 315°
2026-05-07 23:40 -21.76220 -43.39779 33605 ft 456 kts 315°
2026-05-07 23:41 -21.73830 -43.42014 33958 ft 456 kts 315°